This demonstration page uses our WeatherBlox Daily Observations layout. Learn more.

Left ArrowRight Arrow

53.62937, 11.41316

Hourly Observations for September 23, 2015

Temp ( °F °C ) Dew Point ( °F °C ) Humidity (%) Winds ( mph kmh ) Pressure ( in mb ) Visibility ( mi km ) Precip ( " mm )
1:20 am 01:20 Mostly Clear 54 12 52 11 94 94 SSE 5 7 29.59 1002 7 11 N/A
1:50 am 01:50 Mostly Clear 54 12 52 11 94 94 SSE 5 7 29.59 1002 7 11 N/A
2:20 am 02:20 Mostly Clear 54 12 52 11 94 94 SE 5 7 29.59 1002 7 11 N/A
2:50 am 02:50 Mostly Clear 54 12 52 11 94 94 SSE 5 7 29.59 1002 7 11 N/A
3:20 am 03:20 Mostly Clear 46 8 46 8 100 100 VRB 2 4 29.59 1002 7 11 N/A
3:50 am 03:50 Mostly Clear 46 8 45 7 93 93 E 2 4 29.59 1002 7 11 N/A
4:20 am 04:20 Mostly Clear 46 8 45 7 93 93 ESE 6 9 29.59 1002 7 11 N/A
4:50 am 04:50 Mostly Clear 50 10 50 10 100 100 ESE 5 7 29.59 1002 7 11 N/A
5:20 am 05:20 Partly Cloudy 50 10 50 10 100 100 VRB 1 2 29.62 1003 30 48 N/A
5:50 am 05:50 Partly Cloudy 50 10 50 10 100 100 SSE 5 7 29.62 1003 5 8 N/A
6:20 am 06:20 Mostly Cloudy 50 10 50 10 100 100 SSE 5 7 29.62 1003 4 7 N/A
6:50 am 06:50 Mostly Cloudy with Mist and Fog 50 10 50 10 100 100 E 3 6 29.62 1003 3 5 N/A
7:20 am 07:20 Mostly Cloudy with Fog 48 9 48 9 100 100 E 6 9 29.65 1004 0 1 N/A
7:50 am 07:50 Cloudy with Mist and Fog 50 10 50 10 100 100 SSE 7 11 29.65 1004 3 5 N/A
8:20 am 08:20 Cloudy 52 11 52 11 100 100 S 5 7 29.68 1005 4 6 N/A
8:50 am 08:50 Mostly Cloudy 52 11 52 11 100 100 S 3 6 29.68 1005 30 48 N/A
9:20 am 09:20 Mostly Cloudy 54 12 52 11 94 94 SSW 6 9 29.71 1006 30 48 N/A
9:50 am 09:50 Mostly Cloudy 54 12 52 11 94 94 SW 6 9 29.71 1006 30 48 N/A
10:20 am 10:20 Cloudy 54 12 52 11 94 94 SW 7 11 29.71 1006 30 48 N/A
10:50 am 10:50 Cloudy 54 12 52 11 94 94 SW 8 13 29.74 1007 30 48 N/A
11:20 am 11:20 Cloudy 54 12 50 10 88 88 SW 8 13 29.74 1007 30 48 N/A
11:50 am 11:50 Mostly Cloudy 55 13 50 10 82 82 SW 9 15 29.74 1007 30 48 N/A
12:20 pm 12:20 Mostly Cloudy 57 14 50 10 77 77 SW 8 13 29.74 1007 30 48 N/A
12:50 pm 12:50 Mostly Cloudy 57 14 52 11 82 82 WSW 6 9 29.77 1008 30 48 N/A
1:20 pm 13:20 Mostly Cloudy 59 15 50 10 72 72 SSW 5 7 29.77 1008 30 48 N/A
1:50 pm 13:50 Partly Cloudy 59 15 50 10 72 72 S 8 13 29.77 1008 30 48 N/A
2:20 pm 14:20 Partly Cloudy 59 15 50 10 72 72 S 9 15 29.77 1008 30 48 N/A
2:50 pm 14:50 Mostly Cloudy 59 15 50 10 72 72 SSW 10 17 29.80 1009 30 48 N/A
3:20 pm 15:20 Mostly Cloudy 59 15 50 10 72 72 S 9 15 29.80 1009 30 48 N/A
3:50 pm 15:50 Mostly Cloudy 61 16 48 9 63 63 SSE 8 13 29.80 1009 30 48 N/A
4:20 pm 16:20 Mostly Cloudy 61 16 48 9 63 63 SSW 9 15 29.80 1009 30 48 N/A
4:50 pm 16:50 Mostly Cloudy 59 15 48 9 68 68 S 9 15 29.80 1009 30 48 N/A
5:20 pm 17:20 Mostly Cloudy 59 15 48 9 68 68 S 8 13 29.80 1009 30 48 N/A
5:50 pm 17:50 Mostly Cloudy 59 15 48 9 68 68 SSE 6 9 29.83 1010 30 48 N/A
6:20 pm 18:20 Mostly Sunny 57 14 50 10 77 77 SSE 5 7 29.83 1010 7 11 N/A
6:50 pm 18:50 Mostly Sunny 55 13 50 10 82 82 SSE 3 6 29.85 1011 7 11 N/A

Powered by AerisWeather